Total_Precipitation_Accumulation
0.00 0.00 0.00 0.01 0.01 0.01 0.01 0.01 0.00 0.00 0.00 0.00 0.00 0.00 0.00 0.00 0.00 0.00 0.00 0.00 0.00 0.00 0.00 0.01 0.01 0.02 0.04 0.06 0.08 0.09 0.09 0.09 0.09 0.09 0.09 0.10 0.10 0.11 0.12 0.14 0.14 0.14 0.15
0.00 0.00 0.01 0.01 0.01 0.01 0.01 0.00 0.00 0.00 0.00 0.00 0.00 0.00 0.00 0.00 0.00 0.00 0.00 0.00 0.00 0.00 0.00 0.01 0.01 0.03 0.04 0.06 0.07 0.07 0.08 0.08 0.08 0.09 0.09 0.10 0.11 0.12 0.13 0.15 0.15 0.16 0.16
0.00 0.00 0.01 0.01 0.00 0.00 0.00 0.00 0.00 0.00 0.00 0.00 0.00 0.00 0.00 0.00 0.00 0.00 0.00 0.00 0.00 0.00 0.00 0.00 0.01 0.02 0.03 0.04 0.05 0.06 0.08 0.09 0.09 0.09 0.10 0.10 0.11 0.12 0.14 0.16 0.17 0.18 0.19
0.01 0.00 0.00 0.00 0.00 0.00 0.00 0.00 0.00 0.00 0.00 0.00 0.00 0.00 0.00 0.00 0.00 0.00 0.00 0.00 0.00 0.00 0.00 0.00 0.01 0.01 0.02 0.02 0.02 0.04 0.06 0.09 0.10 0.11 0.12 0.12 0.12 0.13 0.15 0.18 0.21 0.23 0.25
0.03 0.01 0.00 0.00 0.00 0.00 0.00 0.00 0.00 0.01 0.00 0.00 0.00 0.00 0.00 0.01 0.00 0.00 0.01 0.00 0.00 0.00 0.00 0.00 0.00 0.00 0.01 0.01 0.02 0.03 0.07 0.11 0.14 0.15 0.15 0.16 0.17 0.19 0.21 0.24 0.26 0.29 0.31
0.06 0.05 0.03 0.02 0.02 0.02 0.02 0.02 0.02 0.02 0.01 0.01 0.01 0.01 0.01 0.01 0.00 0.01 0.00 0.00 0.00 0.00 0.00 0.00 0.00 0.00 0.01 0.02 0.05 0.07 0.09 0.11 0.14 0.16 0.17 0.17 0.19 0.21 0.24 0.28 0.30 0.31 0.33
0.09 0.09 0.06 0.06 0.05 0.05 0.05 0.05 0.05 0.04 0.04 0.05 0.04 0.02 0.01 0.01 0.01 0.01 0.01 0.01 0.01 0.01 0.01 0.01 0.02 0.02 0.04 0.06 0.09 0.09 0.09 0.09 0.12 0.16 0.17 0.18 0.20 0.23 0.27 0.31 0.34 0.36 0.38
0.13 0.11 0.09 0.09 0.08 0.07 0.06 0.07 0.08 0.08 0.08 0.09 0.08 0.06 0.02 0.01 0.01 0.02 0.02 0.01 0.02 0.02 0.02 0.03 0.04 0.05 0.07 0.08 0.09 0.08 0.07 0.07 0.08 0.11 0.14 0.14 0.16 0.19 0.24 0.28 0.33 0.38 0.43
0.21 0.18 0.15 0.14 0.12 0.10 0.08 0.10 0.13 0.14 0.12 0.12 0.11 0.11 0.06 0.02 0.01 0.01 0.02 0.03 0.03 0.02 0.03 0.04 0.05 0.05 0.06 0.05 0.06 0.06 0.06 0.07 0.07 0.08 0.10 0.12 0.14 0.18 0.23 0.30 0.36 0.43 0.49
0.25 0.25 0.22 0.19 0.16 0.15 0.13 0.14 0.17 0.18 0.19 0.15 0.13 0.11 0.10 0.07 0.06 0.03 0.02 0.03 0.05 0.04 0.05 0.06 0.06 0.07 0.07 0.07 0.08 0.09 0.12 0.15 0.15 0.18 0.23 0.24 0.26 0.31 0.39 0.48 0.56 0.63 0.68
0.22 0.25 0.24 0.24 0.21 0.19 0.22 0.24 0.24 0.25 0.24 0.22 0.19 0.17 0.18 0.15 0.11 0.10 0.06 0.04 0.06 0.07 0.08 0.08 0.07 0.07 0.08 0.09 0.12 0.17 0.25 0.28 0.32 0.34 0.35 0.38 0.43 0.50 0.58 0.67 0.77 0.86 0.94
0.18 0.21 0.24 0.24 0.24 0.25 0.27 0.29 0.31 0.33 0.34 0.32 0.29 0.25 0.26 0.23 0.19 0.21 0.18 0.12 0.12 0.13 0.14 0.14 0.13 0.13 0.14 0.15 0.18 0.25 0.30 0.35 0.39 0.41 0.43 0.52 0.58 0.62 0.66 0.69 0.74 0.82 0.97
0.13 0.16 0.20 0.23 0.27 0.31 0.35 0.37 0.36 0.36 0.39 0.39 0.38 0.35 0.34 0.31 0.30 0.33 0.33 0.26 0.20 0.17 0.17 0.19 0.20 0.21 0.23 0.25 0.30 0.37 0.40 0.44 0.48 0.51 0.56 0.63 0.64 0.58 0.50 0.45 0.47 0.54 0.62
0.16 0.19 0.22 0.26 0.29 0.32 0.34 0.36 0.37 0.38 0.40 0.40 0.41 0.41 0.39 0.37 0.37 0.39 0.41 0.46 0.44 0.36 0.32 0.31 0.33 0.38 0.41 0.44 0.48 0.53 0.49 0.53 0.53 0.53 0.57 0.62 0.60 0.50 0.41 0.38 0.39 0.41 0.45
0.15 0.17 0.21 0.24 0.26 0.29 0.31 0.34 0.34 0.34 0.35 0.35 0.35 0.38 0.39 0.38 0.38 0.41 0.46 0.55 0.67 0.68 0.58 0.50 0.52 0.55 0.56 0.56 0.57 0.52 0.47 0.53 0.54 0.52 0.52 0.51 0.48 0.43 0.38 0.35 0.34 0.33 0.34
0.11 0.14 0.17 0.19 0.21 0.23 0.25 0.27 0.27 0.26 0.28 0.29 0.30 0.33 0.35 0.36 0.38 0.42 0.48 0.56 0.66 0.78 0.78 0.65 0.59 0.60 0.61 0.59 0.59 0.49 0.43 0.49 0.45 0.43 0.42 0.40 0.37 0.34 0.31 0.29 0.27 0.28 0.29
0.09 0.11 0.13 0.15 0.16 0.17 0.17 0.19 0.19 0.20 0.23 0.25 0.26 0.29 0.32 0.35 0.39 0.44 0.50 0.57 0.66 0.76 0.82 0.74 0.64 0.59 0.57 0.51 0.46 0.37 0.31 0.29 0.27 0.30 0.29 0.27 0.26 0.24 0.24 0.23 0.23 0.25 0.27
0.07 0.08 0.09 0.11 0.11 0.11 0.12 0.14 0.15 0.16 0.19 0.22 0.24 0.27 0.31 0.36 0.43 0.50 0.55 0.60 0.63 0.64 0.64 0.61 0.52 0.45 0.40 0.35 0.29 0.23 0.18 0.15 0.13 0.16 0.17 0.16 0.16 0.16 0.16 0.17 0.20 0.25 0.29
0.06 0.06 0.06 0.07 0.07 0.08 0.10 0.12 0.13 0.15 0.17 0.21 0.25 0.29 0.33 0.38 0.42 0.44 0.45 0.45 0.44 0.41 0.39 0.38 0.34 0.29 0.25 0.21 0.18 0.13 0.10 0.08 0.06 0.07 0.07 0.07 0.07 0.10 0.14 0.18 0.21 0.24 0.24
0.06 0.06 0.06 0.06 0.06 0.06 0.08 0.10 0.12 0.16 0.21 0.27 0.31 0.35 0.38 0.39 0.38 0.36 0.33 0.32 0.30 0.26 0.23 0.24 0.24 0.22 0.19 0.15 0.13 0.09 0.06 0.05 0.03 0.03 0.03 0.04 0.06 0.10 0.11 0.11 0.10 0.08 0.07
0.07 0.07 0.08 0.09 0.10 0.12 0.16 0.19 0.23 0.28 0.33 0.36 0.37 0.38 0.37 0.37 0.34 0.29 0.24 0.21 0.19 0.19 0.22 0.27 0.27 0.22 0.14 0.10 0.07 0.04 0.04 0.04 0.02 0.02 0.03 0.03 0.04 0.03 0.02 0.01 0.01 0.02 0.05
0.15 0.16 0.19 0.22 0.26 0.32 0.45 0.45 0.41 0.40 0.40 0.38 0.34 0.30 0.27 0.26 0.22 0.20 0.18 0.18 0.20 0.24 0.32 0.37 0.30 0.18 0.07 0.03 0.03 0.05 0.09 0.13 0.09 0.02 0.04 0.02 0.01 0.01 0.00 0.01 0.02 0.06 0.10
0.32 0.36 0.41 0.47 0.53 0.59 0.64 0.57 0.48 0.38 0.35 0.31 0.27 0.22 0.17 0.13 0.11 0.09 0.08 0.11 0.15 0.20 0.23 0.20 0.13 0.04 0.03 0.04 0.11 0.18 0.17 0.18 0.11 0.02 0.05 0.04 0.02 0.02 0.01 0.02 0.03 0.05 0.07
0.56 0.63 0.69 0.69 0.67 0.65 0.58 0.46 0.36 0.29 0.24 0.20 0.15 0.11 0.08 0.06 0.04 0.06 0.09 0.14 0.11 0.07 0.05 0.03 0.03 0.04 0.05 0.07 0.15 0.26 0.23 0.15 0.06 0.02 0.04 0.06 0.02 0.02 0.01 0.01 0.02 0.03 0.06
0.73 0.73 0.69 0.62 0.52 0.43 0.33 0.23 0.16 0.12 0.09 0.07 0.04 0.03 0.03 0.02 0.03 0.11 0.17 0.17 0.08 0.02 0.00 0.02 0.06 0.06 0.06 0.05 0.06 0.15 0.21 0.23 0.14 0.02 0.02 0.04 0.03 0.02 0.02 0.01 0.01 0.03 0.05
0.54 0.45 0.36 0.27 0.19 0.14 0.09 0.05 0.03 0.02 0.01 0.01 0.00 0.01 0.01 0.03 0.08 0.16 0.16 0.13 0.05 0.02 0.04 0.03 0.01 0.00 0.00 0.00 0.02 0.09 0.27 0.49 0.36 0.17 0.01 0.08 0.12 0.15 0.23 0.03 0.01 0.01 0.02